Torna al catalogo

GSTAR 2

AttivoComunicazioniGEO
NORAD 16649·PAYLOAD·🇺🇸 United States

Lanciato Mar 28, 1986 da Guiana Space Centre

Loading…

TLE

AggiornatoSource: Space-Track

Epoca: Sep 12, 2026, 22:34 UTC

1 16649U 86026A   26255.94083941  .00000051  00000-0  00000-0 0  9992
2 16649  14.1542 345.1926 0001634  37.6268 333.9217  0.99797250117523

Traccia GSTAR 2 in tempo reale con AllMySat

Download on the App Store